Content
SEND FEEDBACK

Daily
Averages
Monthly
Summary
Philippines

ANGELES, PHILIPPINES


Home > Asia > Philippines
Elevation: 577 feet     Latitude: 15 19N     Longitude: 120 23E

WEATHER
 
SELECT A DAY
Number of Records: 93,653;   Date Range: 2/13/97 - 7/29/14
 
SHARE

PRINT THIS DATA

[ ← Previous Day ]
WEATHER ALMANAC - MAY 22, 2013
[ Next Day → ]
[ °C ]   °F
Weather ElementAverageHighLow
Temperature82.8 °F91.4 °F (1:00 pm)75.2 °F (1:00 am)
Dewpoint73.4 °F77 °F (8:00 am)69.8 °F (2:00 pm)
Humidity74.9 %94 % (1:00 am)49 % (2:00 pm)
Barometer29.84 in29.95 in (10:00 pm)29.74 in (4:00 pm)
Wind Speed6.2 mph12.7 mph (2:00 pm)
Wind Gust23 mph (7:00 am)
Weather ElementAverage
Visibility6.2 mi
Wind DirectionSSE (164.3 °)

Weather ElementTotal
Precipitation---
Cooling Degree Days18.3 (Base 65)
Growing Degree Days33.3 (Base 50)
Averaged from 23 records on May 22, 2013
WEATHER CONDITIONS BREAKOUT
WIND DIRECTION BREAKOUT
WEATHER BY HOUR - MAY 22, 2013
[ °C ]   °F
Local TimeTemperatureDewpointHumidityBarometerVisibilityWind DirectionWind SpeedGust SpeedPrecipitationEventsConditions
1:00 AM75.2 °F73.4 °F94 %29.89 in6.2 miWSW (250°)5.8 mphScattered Clouds
2:00 AM75.2 °F73.4 °F94 %29.86 in6.2 miWSW (250°)4.6 mphMostly Cloudy
3:00 AM75.2 °F73.4 °F94 %29.86 in6.2 miWest (260°)5.8 mphMostly Cloudy
4:00 AM75.2 °F73.4 °F94 %29.83 in6.2 miWest (270°)4.6 mph21.9 mphMostly Cloudy
5:00 AM75.2 °F73.4 °F94 %29.83 in6.2 miWest (280°)2.3 mphMostly Cloudy
6:00 AM75.2 °F73.4 °F94 %29.86 in6.2 miWest (270°)4.6 mphMostly Cloudy
7:00 AM78.8 °F75.2 °F89 %29.86 in6.2 miVariable1.2 mph23.0 mphMostly Cloudy
8:00 AM84.2 °F77.0 °F79 %29.86 in6.2 miVariable1.2 mph20.7 mphMostly Cloudy
9:00 AM86.0 °F75.2 °F70 %29.86 in6.2 miVariable3.5 mphMostly Cloudy
10:00 AM87.8 °F75.2 °F66 %29.86 in6.2 miSSE (150°)6.9 mphMostly Cloudy
11:00 AM89.6 °F75.2 °F62 %29.83 in6.2 miSouth (170°)6.9 mphMostly Cloudy
12:00 PM89.6 °F77.0 °F66 %29.83 in6.2 miSSE (150°)8.1 mphMostly Cloudy
1:00 PM91.4 °F73.4 °F55 %29.80 in6.2 miSouth (170°)6.9 mphMostly Cloudy
2:00 PM91.4 °F69.8 °F49 %29.77 in6.2 miSouth (180°)12.7 mphMostly Cloudy
3:00 PM91.4 °F71.6 °F52 %29.77 in6.2 miVariable12.7 mphScattered Clouds
4:00 PM91.4 °F71.6 °F52 %29.74 in6.2 miSouth (180°)8.1 mphMostly Cloudy
5:00 PM87.8 °F71.6 °F58 %29.77 in6.2 miWest (280°)12.7 mphMostly Cloudy
6:00 PM84.2 °F69.8 °F62 %29.80 in6.2 miWest (280°)8.1 mphMostly Cloudy
7:00 PM82.4 °F71.6 °F70 %29.83 in5.6 miNW (320°)4.6 mphMostly Cloudy
8:00 PM80.6 °F73.4 °F79 %29.89 in6.2 miVariable8.1 mphMostly Cloudy
9:00 PM78.8 °F73.4 °F83 %29.92 in6.2 miNNE (30°)6.9 mphMostly Cloudy
10:00 PM78.8 °F73.4 °F83 %29.95 in6.2 miWNW (290°)5.8 mphOvercast
11:00 PM78.8 °F73.4 °F83 %29.95 in6.2 miVariable1.2 mphOvercast
Hourly data recorded from RPLC, located miles away from Angeles, Philippines







STORIES FROM OUR PARTNERS